When you browse on this site, cookies collect data to enhance your experience and personalize the content and advertising you see.
Visit our Privacy Policy to learn more. By continuing to use the site, you agree to this use of cookies and data.
  • In Hungary
  • List of Countries
  • For 7 days
  • Water Temperature
  • Weather Map
  • News
  • Weather Widgets
  • user-avatar
    Login

    Hourly Weather Petrushino

    Today, 25 August, Sunday

    Time Temperature Precipitation Wind Pressure Humidity
    00:00 +14°C° 0 mm 1 mps 755 mmHg 93%
    01:00 +13°C° 0 mm 1 mps 756 mmHg 93%
    02:00 +13°C° 0 mm 1 mps 756 mmHg 95%
    03:00 +13°C° 0 mm 1 mps 756 mmHg 95%
    04:00 +12°C° 0 mm 1 mps 756 mmHg 95%
    05:00 +12°C° 0 mm 1 mps 756 mmHg 95%
    06:00 +13°C° 0 mm 1 mps 757 mmHg 90%
    07:00 +15°C° 0 mm 1 mps 757 mmHg 84%
    08:00 +16°C° 0 mm 1 mps 757 mmHg 77%
    09:00 +18°C° 0 mm 1 mps 757 mmHg 71%
    10:00 +20°C° 0 mm 1 mps 757 mmHg 64%
    11:00 +20°C° 0 mm 2 mps 757 mmHg 58%
    12:00 +20°C° 0 mm 2 mps 757 mmHg 56%
    13:00 +21°C° 0 mm 2 mps 757 mmHg 54%
    14:00 +21°C° 0 mm 2 mps 757 mmHg 53%
    15:00 +22°C° 0 mm 1 mps 757 mmHg 57%
    16:00 +22°C° 0 mm 1 mps 757 mmHg 61%
    17:00 +21°C° 0 mm 1 mps 757 mmHg 65%
    18:00 +19°C° 0 mm 1 mps 757 mmHg 71%
    19:00 +16°C° 0 mm 1 mps 757 mmHg 77%
    20:00 +14°C° 0 mm 1 mps 757 mmHg 83%
    21:00 +14°C° 0 mm 1 mps 757 mmHg 85%
    22:00 +12°C° 0 mm 0 mps 757 mmHg 87%
    23:00 +12°C° 0 mm 0 mps 757 mmHg 89%

    Tomorrow, 26 August, Monday

    Time Temperature Precipitation Wind Pressure Humidity
    00:00 +12°C° 0 mm 0 mps 757 mmHg 90%
    01:00 +11°C° 0 mm 0 mps 758 mmHg 90%
    02:00 +12°C° 0 mm 1 mps 758 mmHg 91%
    03:00 +12°C° 0 mm 1 mps 757 mmHg 91%
    04:00 +12°C° 0 mm 1 mps 757 mmHg 92%
    05:00 +11°C° 0 mm 1 mps 757 mmHg 92%
    06:00 +13°C° 0 mm 1 mps 757 mmHg 86%
    07:00 +15°C° 0 mm 1 mps 757 mmHg 80%
    08:00 +18°C° 0 mm 1 mps 757 mmHg 75%
    09:00 +19°C° 0 mm 2 mps 757 mmHg 70%
    10:00 +21°C° 0 mm 2 mps 757 mmHg 66%
    11:00 +23°C° 0 mm 2 mps 756 mmHg 62%
    12:00 +24°C° 0 mm 2 mps 756 mmHg 60%
    13:00 +24°C° 0 mm 3 mps 756 mmHg 59%
    14:00 +25°C° 0 mm 3 mps 756 mmHg 58%
    15:00 +25°C° 0 mm 2 mps 755 mmHg 62%
    16:00 +24°C° 0 mm 2 mps 755 mmHg 66%
    17:00 +24°C° 0 mm 2 mps 754 mmHg 70%
    18:00 +21°C° 0 mm 2 mps 754 mmHg 75%
    19:00 +19°C° 0 mm 2 mps 754 mmHg 80%
    20:00 +18°C° 0 mm 2 mps 754 mmHg 85%
    21:00 +17°C° 0 mm 2 mps 754 mmHg 87%
    22:00 +17°C° 0 mm 2 mps 754 mmHg 89%
    23:00 +17°C° 0 mm 2 mps 754 mmHg 91%

    Day after tomorrow, 27 August, Tuesday

    Time Temperature Precipitation Wind Pressure Humidity
    00:00 +16°C° 0 mm 2 mps 754 mmHg 92%
    01:00 +16°C° 0 mm 2 mps 754 mmHg 94%
    02:00 +16°C° 0 mm 2 mps 754 mmHg 95%
    03:00 +15°C° 0 mm 2 mps 754 mmHg 96%
    04:00 +15°C° 0 mm 2 mps 754 mmHg 96%
    05:00 +14°C° 0 mm 2 mps 753 mmHg 97%
    06:00 +15°C° 0 mm 2 mps 754 mmHg 93%
    07:00 +17°C° 0 mm 2 mps 754 mmHg 89%
    08:00 +18°C° 0 mm 2 mps 754 mmHg 84%
    09:00 +19°C° 0 mm 2 mps 754 mmHg 78%
    10:00 +20°C° 0 mm 2 mps 754 mmHg 71%
    11:00 +22°C° 0 mm 3 mps 754 mmHg 64%
    12:00 +22°C° 0 mm 3 mps 754 mmHg 61%
    13:00 +24°C° 0 mm 3 mps 754 mmHg 59%
    14:00 +23°C° 0 mm 4 mps 754 mmHg 56%
    15:00 +24°C° 0 mm 3 mps 754 mmHg 59%
    16:00 +22°C° 0 mm 3 mps 754 mmHg 62%
    17:00 +21°C° 0 mm 2 mps 754 mmHg 65%
    18:00 +19°C° 0 mm 2 mps 754 mmHg 70%
    19:00 +17°C° 0 mm 2 mps 754 mmHg 74%
    20:00 +15°C° 0 mm 2 mps 754 mmHg 79%
    21:00 +15°C° 0 mm 1 mps 755 mmHg 81%
    22:00 +14°C° 0 mm 1 mps 755 mmHg 83%
    23:00 +13°C° 0 mm 1 mps 755 mmHg 85%

    28 August, Wednesday

    Time Temperature Precipitation Wind Pressure Humidity
    00:00 +13°C° 0 mm 1 mps 755 mmHg 87%
    01:00 +12°C° 0 mm 1 mps 756 mmHg 89%
    02:00 +12°C° 0 mm 1 mps 756 mmHg 91%
    03:00 +12°C° 0 mm 1 mps 756 mmHg 93%
    04:00 +11°C° 0 mm 1 mps 756 mmHg 94%
    05:00 +11°C° 0 mm 1 mps 756 mmHg 96%
    06:00 +12°C° 0 mm 1 mps 757 mmHg 90%
    07:00 +14°C° 0 mm 1 mps 757 mmHg 84%
    08:00 +15°C° 0 mm 2 mps 757 mmHg 78%
    09:00 +16°C° 0 mm 2 mps 757 mmHg 69%
    10:00 +18°C° 0 mm 2 mps 757 mmHg 61%
    11:00 +19°C° 0 mm 2 mps 757 mmHg 52%
    12:00 +19°C° 0 mm 2 mps 757 mmHg 50%
    13:00 +20°C° 0 mm 2 mps 757 mmHg 48%
    14:00 +20°C° 0 mm 2 mps 757 mmHg 45%
    15:00 +20°C° 0 mm 2 mps 757 mmHg 50%
    16:00 +19°C° 0 mm 2 mps 756 mmHg 54%
    17:00 +19°C° 0 mm 2 mps 756 mmHg 58%
    18:00 +17°C° 0 mm 2 mps 756 mmHg 62%
    19:00 +15°C° 0 mm 2 mps 756 mmHg 67%
    20:00 +13°C° 0 mm 2 mps 757 mmHg 71%
    21:00 +12°C° 0 mm 2 mps 757 mmHg 71%
    22:00 +11°C° 0 mm 1 mps 757 mmHg 71%
    23:00 +10°C° 0 mm 1 mps 757 mmHg 71%

    29 August, Thursday

    Time Temperature Precipitation Wind Pressure Humidity
    00:00 +9°C° 0 mm 2 mps 757 mmHg 73%
    01:00 +8°C° 0 mm 2 mps 757 mmHg 74%
    02:00 +8°C° 0 mm 2 mps 757 mmHg 76%
    03:00 +7°C° 0 mm 2 mps 757 mmHg 77%
    04:00 +8°C° 0 mm 1 mps 758 mmHg 79%
    05:00 +7°C° 0 mm 1 mps 758 mmHg 81%
    06:00 +9°C° 0 mm 1 mps 758 mmHg 76%
    07:00 +10°C° 0 mm 2 mps 758 mmHg 72%
    08:00 +13°C° 0 mm 2 mps 758 mmHg 67%
    09:00 +14°C° 0 mm 2 mps 758 mmHg 60%
    10:00 +16°C° 0 mm 2 mps 757 mmHg 53%
    11:00 +18°C° 0 mm 2 mps 757 mmHg 47%
    12:00 +18°C° 0 mm 2 mps 757 mmHg 45%
    13:00 +19°C° 0 mm 2 mps 757 mmHg 44%
    14:00 +20°C° 0 mm 2 mps 756 mmHg 43%
    15:00 +19°C° 0 mm 2 mps 756 mmHg 48%
    16:00 +19°C° 0 mm 2 mps 756 mmHg 53%
    17:00 +20°C° 0 mm 1 mps 756 mmHg 58%
    18:00 +18°C° 0 mm 1 mps 756 mmHg 64%
    19:00 +15°C° 0 mm 1 mps 756 mmHg 69%
    20:00 +12°C° 0 mm 1 mps 755 mmHg 74%
    21:00 +12°C° 0 mm 1 mps 755 mmHg 76%
    22:00 +10°C° 0 mm 2 mps 755 mmHg 78%
    23:00 +10°C° 0 mm 2 mps 755 mmHg 80%

    30 August, Friday

    Time Temperature Precipitation Wind Pressure Humidity
    00:00 +9°C° 0 mm 2 mps 755 mmHg 82%
    01:00 +9°C° 0 mm 2 mps 755 mmHg 84%
    02:00 +9°C° 0 mm 2 mps 755 mmHg 86%
    03:00 +8°C° 0 mm 2 mps 755 mmHg 87%
    04:00 +8°C° 0 mm 2 mps 755 mmHg 88%
    05:00 +8°C° 0 mm 2 mps 755 mmHg 88%
    06:00 +10°C° 0 mm 2 mps 755 mmHg 82%
    07:00 +12°C° 0 mm 2 mps 755 mmHg 75%
    08:00 +14°C° 0 mm 2 mps 755 mmHg 69%
    09:00 +16°C° 0 mm 2 mps 755 mmHg 63%
    10:00 +17°C° 0 mm 3 mps 755 mmHg 58%
    11:00 +19°C° 0 mm 3 mps 755 mmHg 53%
    12:00 +20°C° 0 mm 3 mps 755 mmHg 52%
    13:00 +20°C° 0 mm 3 mps 755 mmHg 51%
    14:00 +21°C° 0 mm 3 mps 755 mmHg 50%
    15:00 +20°C° 0 mm 3 mps 755 mmHg 55%
    16:00 +19°C° 0 mm 2 mps 755 mmHg 61%
    17:00 +19°C° 0 mm 2 mps 755 mmHg 67%
    18:00 +17°C° 0 mm 2 mps 755 mmHg 70%
    19:00 +16°C° 0 mm 2 mps 755 mmHg 74%
    20:00 +15°C° 0 mm 2 mps 755 mmHg 77%
    21:00 +14°C° 0 mm 2 mps 755 mmHg 79%
    22:00 +14°C° 0 mm 2 mps 755 mmHg 81%
    23:00 +13°C° 0 mm 2 mps 755 mmHg 84%
    Show more